Satellite-Ground Cal/Val Region Overpasses Predictions

Prediction of Satellite NPP Overpassing Cal/Val Region: PacNW

Region Location: (Latitude: 10.00, Longitude: 139.50) to (Latitude: 22.70, Longitude: 165.60).

Table of predicted overpasses for the next 14.0 days since TLE Epoch: 10/26/2012
Interval Starting Time Starting Location Ending Time Ending Location
1 10/26/2012 15:40:47 ( 22.65, 149.21) 10/26/2012 15:44:22 ( 10.03, 146.21)
2 10/27/2012 02:49:51 ( 10.03, 156.74) 10/27/2012 02:53:26 ( 22.65, 153.74)
3 10/27/2012 15:21:45 ( 22.65, 153.97) 10/27/2012 15:25:20 ( 10.04, 150.97)
4 10/28/2012 02:30:50 ( 10.02, 161.50) 10/28/2012 02:34:26 ( 22.70, 158.48)
5 10/28/2012 15:02:44 ( 22.66, 158.73) 10/28/2012 15:06:19 ( 10.04, 155.73)
6 10/29/2012 02:12:37 ( 12.89, 165.60) 10/29/2012 02:15:24 ( 22.69, 163.24)
7 10/29/2012 03:53:18 ( 10.01, 140.88) 10/29/2012 03:54:59 ( 15.95, 139.51)
8 10/29/2012 14:43:42 ( 22.67, 163.48) 10/29/2012 14:47:17 ( 10.05, 160.48)
9 10/30/2012 03:34:17 ( 10.01, 145.64) 10/30/2012 03:37:53 ( 22.69, 142.62)
10 10/30/2012 14:27:50 ( 11.59, 165.59) 10/30/2012 14:28:17 ( 10.00, 165.23)
11 10/30/2012 16:06:11 ( 22.67, 142.87) 10/30/2012 16:09:46 ( 10.06, 139.86)
12 10/31/2012 03:15:15 ( 10.00, 150.40) 10/31/2012 03:18:51 ( 22.68, 147.38)
13 10/31/2012 15:47:09 ( 22.68, 147.62) 10/31/2012 15:50:45 ( 10.00, 144.61)
14 11/01/2012 02:56:15 ( 10.05, 155.14) 11/01/2012 02:59:50 ( 22.68, 152.14)
15 11/01/2012 15:28:08 ( 22.69, 152.38) 11/01/2012 15:31:44 ( 10.01, 149.36)
16 11/02/2012 02:37:13 ( 10.05, 159.90) 11/02/2012 02:40:48 ( 22.67, 156.89)
17 11/02/2012 15:09:06 ( 22.69, 157.14) 11/02/2012 15:12:42 ( 10.02, 154.12)
18 11/03/2012 02:18:12 ( 10.05, 164.65) 11/03/2012 02:21:47 ( 22.67, 161.65)
19 11/03/2012 14:50:05 ( 22.70, 161.89) 11/03/2012 14:53:41 ( 10.02, 158.88)
20 11/04/2012 03:40:41 ( 10.05, 144.03) 11/04/2012 03:44:16 ( 22.67, 141.03)
21 11/04/2012 14:32:16 ( 18.42, 165.60) 11/04/2012 14:34:39 ( 10.02, 163.63)
22 11/04/2012 16:12:33 ( 22.70, 141.27) 11/04/2012 16:14:37 ( 15.42, 139.51)
23
